Change the Weather History Date:

Tuesday, April 15, 2014

  Actual Average Record
Temperature  
Mean Temperature 54 °F -  
Max Temperature 65 °F 74 °F 89 °F (1999)
Min Temperature 42 °F 51 °F 37 °F (2008)
Degree Days  
Heating Degree Days 12    
Growing Degree Days 4 (Base 50)    
Moisture  
Dew Point 55 °F    
Average Humidity 91    
Maximum Humidity 100    
Minimum Humidity 54    
Precipitation  
Precipitation 0.46 in - - ()
Sea Level Pressure  
Sea Level Pressure 29.84 in    
Wind  
Wind Speed 8 mph (WNW)    
Max Wind Speed 23 mph    
Max Gust Speed 30 mph    
Visibility 9 miles    
Events Rain    
Averages and records for this station are not official NWS values.
T = Trace of Precipitation, MM = Missing Value Source: NWS Daily Summary

Daily Weather History Graph

Daily Weather History Graph

Search for Another Location

Airport or City:

Trip Planner

Search our weather history database for the weather conditions in past years. The results will help you decide how hot, cold, wet, or windy it might be!

Date:

Astronomy

Apr. 15, 2014 Rise Set
Actual Time 6:14 AM CDT 7:11 PM CDT
Civil Twilight 5:49 AM CDT 7:36 PM CDT
Nautical Twilight 5:20 AM CDT 8:05 PM CDT
Astronomical Twilight 4:50 AM CDT 8:36 PM CDT
Moon 7:49 PM CDT (4/15) 6:22 AM CDT (4/15)
Length of Visible Light 13h 46m
Length of Day
12h 56m
Full, 100% of the Moon is Illuminated
Apr 15
Full
Apr 22
Last Quarter
Apr 29
New
May 6
First Quarter
May 14
Full

Hourly Weather History & Observations

Time (CDT) Temp. Windchill Dew Point Humidity Pressure Visibility Wind Dir Wind Speed Gust Speed Precip Events Conditions
12:04 AM 64.4 °F - 62.6 °F 94% 29.77 in 3.0 mi East 5.8 mph - N/A Rain Rain
12:58 AM 65.1 °F - 63.3 °F 94% 29.74 in 4.0 mi Variable 4.6 mph - 0.17 in Rain Rain
1:18 AM 64.4 °F - 62.6 °F 94% 29.77 in 10.0 mi South 6.9 mph - N/A Rain Light Rain
1:28 AM 64.4 °F - 64.4 °F 100% 29.77 in 6.0 mi SSW 8.1 mph - N/A Rain Light Rain
1:33 AM 64.4 °F - 64.4 °F 100% 29.76 in 4.0 mi WSW 4.6 mph - N/A Rain Rain
1:38 AM 64.4 °F - 64.4 °F 100% 29.75 in 3.0 mi Variable 1.2 mph - N/A Rain Light Rain
1:43 AM 64.4 °F - 64.4 °F 100% 29.75 in 6.0 mi SSE 4.6 mph - N/A Rain Light Rain
1:58 AM 65.1 °F - 64.0 °F 96% 29.75 in 10.0 mi South 5.8 mph - 0.08 in Rain Light Rain
2:18 AM 64.4 °F - 64.4 °F 100% 29.76 in 7.0 mi South 8.1 mph - N/A Rain Light Rain
2:48 AM 64.4 °F - 64.4 °F 100% 29.75 in 8.0 mi Variable 6.9 mph - N/A Rain Light Rain
2:52 AM 64.4 °F - 64.4 °F 100% 29.76 in 6.0 mi WNW 10.4 mph - N/A Rain Light Rain
2:57 AM 64.4 °F - 64.4 °F 100% 29.76 in 3.0 mi NW 10.4 mph - N/A Rain Heavy Rain
2:58 AM 65.1 °F - 64.2 °F 97% 29.76 in 3.0 mi NNW 10.4 mph - 0.11 in Rain Heavy Rain
3:18 AM 64.4 °F - 62.6 °F 94% 29.74 in 5.0 mi North 6.9 mph - N/A Rain Light Rain
3:32 AM 62.6 °F - 62.6 °F 100% 29.73 in 10.0 mi NE 4.6 mph - N/A   Overcast
3:36 AM 62.6 °F - 62.6 °F 100% 29.73 in 10.0 mi Variable 4.6 mph - N/A   Light Drizzle
3:46 AM 62.6 °F - 62.6 °F 100% 29.73 in 10.0 mi NE 2.3 mph - N/A   Overcast
3:58 AM 63.3 °F - 62.4 °F 97% 29.75 in 10.0 mi NNW 3.5 mph - 0.02 in   Overcast
4:01 AM 62.6 °F - 62.6 °F 100% 29.76 in 10.0 mi Calm Calm - N/A Rain Light Rain
4:21 AM 62.6 °F - 62.6 °F 100% 29.73 in 5.0 mi NNE 4.6 mph - N/A Rain Light Rain
4:58 AM 63.1 °F - 62.2 °F 97% 29.75 in 10.0 mi Variable 2.3 mph - 0.03 in   Light Drizzle
5:00 AM 62.6 °F - 62.6 °F 100% 29.75 in 10.0 mi WNW 2.3 mph - N/A   Overcast
5:03 AM 62.6 °F - 62.6 °F 100% 29.75 in 10.0 mi WNW 3.5 mph - N/A   Overcast
5:10 AM 62.6 °F - 62.6 °F 100% 29.75 in 10.0 mi NW 5.8 mph - N/A Rain Light Rain
5:15 AM 62.6 °F - 62.6 °F 100% 29.74 in 9.0 mi NW 5.8 mph - N/A Rain Light Rain
5:20 AM 62.6 °F - 62.6 °F 100% 29.74 in 9.0 mi WNW 4.6 mph - N/A Rain Light Rain
5:40 AM 62.6 °F - 62.6 °F 100% 29.74 in 10.0 mi WNW 3.5 mph - N/A   Light Drizzle
5:45 AM 62.6 °F - 62.6 °F 100% 29.74 in 10.0 mi WNW 5.8 mph - N/A   Light Drizzle
5:48 AM 62.6 °F - 62.6 °F 100% 29.74 in 10.0 mi WNW 4.6 mph - N/A   Overcast
5:58 AM 63.3 °F - 62.8 °F 98% 29.74 in 10.0 mi West 3.5 mph - 0.01 in   Overcast
6:08 AM 62.6 °F - 62.6 °F 100% 29.74 in 10.0 mi West 4.6 mph - N/A   Overcast
6:18 AM 62.6 °F - 62.6 °F 100% 29.74 in 10.0 mi West 2.3 mph - N/A   Overcast
6:19 AM 62.6 °F - 62.6 °F 100% 29.74 in 10.0 mi West 3.5 mph - N/A   Overcast
6:24 AM 62.6 °F - 62.6 °F 100% 29.76 in 10.0 mi WSW 5.8 mph - N/A   Overcast
6:29 AM 62.6 °F - 62.6 °F 100% 29.76 in 10.0 mi West 5.8 mph - N/A   Overcast
6:34 AM 62.6 °F - 62.6 °F 100% 29.75 in 10.0 mi West 4.6 mph - N/A   Overcast
6:44 AM 62.6 °F - 62.6 °F 100% 29.75 in 10.0 mi WNW 5.8 mph - N/A   Overcast
6:46 AM 62.6 °F - 62.6 °F 100% 29.75 in 10.0 mi West 5.8 mph - N/A   Overcast
6:58 AM 63.7 °F - 63.0 °F 97% 29.77 in 10.0 mi West 6.9 mph - N/A   Overcast
6:59 AM 64.4 °F - 62.6 °F 94% 29.77 in 10.0 mi West 6.9 mph - N/A   Light Drizzle
7:04 AM 64.4 °F - 62.6 °F 94% 29.78 in 10.0 mi West 5.8 mph - N/A Rain Light Rain
7:09 AM 64.4 °F - 62.6 °F 94% 29.78 in 10.0 mi West 8.1 mph - N/A Rain Light Rain
7:19 AM 64.4 °F - 62.6 °F 94% 29.79 in 10.0 mi West 12.7 mph - N/A Rain Light Rain
7:26 AM 60.8 °F - 60.8 °F 100% 29.80 in 10.0 mi WNW 23.0 mph - N/A Rain Light Rain
7:58 AM 55.4 °F - 54.0 °F 95% 29.83 in 10.0 mi WNW 13.8 mph 21.9 mph 0.03 in Rain Light Rain
8:08 AM 53.6 °F - 53.6 °F 100% 29.83 in 10.0 mi WNW 15.0 mph 23.0 mph N/A Rain Light Rain
8:25 AM 53.6 °F - 51.8 °F 94% 29.84 in 10.0 mi WNW 16.1 mph 23.0 mph N/A   Overcast
8:40 AM 51.8 °F - 50.0 °F 94% 29.85 in 10.0 mi WNW 13.8 mph 28.8 mph N/A   Overcast
8:45 AM 51.8 °F - 50.0 °F 94% 29.86 in 10.0 mi WNW 13.8 mph 28.8 mph N/A   Overcast
8:50 AM 51.8 °F - 50.0 °F 94% 29.86 in 10.0 mi WNW 13.8 mph 27.6 mph N/A   Overcast
8:55 AM 51.8 °F - 50.0 °F 94% 29.87 in 10.0 mi WNW 15.0 mph 27.6 mph N/A   Overcast
8:58 AM 51.8 °F - 50.0 °F 94% 29.88 in 10.0 mi WNW 18.4 mph 25.3 mph 0.01 in   Overcast
9:03 AM 51.8 °F - 48.2 °F 88% 29.88 in 10.0 mi NW 15.0 mph 24.2 mph N/A   Overcast
9:08 AM 50.0 °F - 48.2 °F 94% 29.88 in 10.0 mi WNW 15.0 mph 24.2 mph N/A   Overcast
9:12 AM 50.0 °F - 48.2 °F 94% 29.88 in 10.0 mi WNW 13.8 mph 19.6 mph N/A Rain Light Rain
9:27 AM 50.0 °F - 48.2 °F 94% 29.89 in 6.0 mi NW 10.4 mph - N/A Rain Light Rain
9:32 AM 50.0 °F - 48.2 °F 94% 29.90 in 6.0 mi WNW 12.7 mph 19.6 mph N/A Rain Light Rain
12:06 PM 50.0 °F - 46.4 °F 87% 29.95 in - WNW 13.8 mph 20.7 mph N/A   Overcast
12:08 PM 50.0 °F - 46.4 °F 87% 29.95 in 10.0 mi WNW 15.0 mph 20.7 mph N/A   Overcast
12:13 PM 50.0 °F - 46.4 °F 87% 29.96 in 10.0 mi WNW 11.5 mph 20.7 mph N/A   Overcast
12:38 PM 51.8 °F - 44.6 °F 76% 29.95 in 10.0 mi WNW 17.3 mph 25.3 mph N/A   Overcast
12:58 PM 50.7 °F - 43.7 °F 77% 29.97 in 10.0 mi WNW 17.3 mph 25.3 mph N/A   Overcast
1:51 PM 48.2 °F - 42.8 °F 82% 29.98 in 10.0 mi WNW 13.8 mph 27.6 mph N/A   Overcast
1:58 PM 48.7 °F - 43.0 °F 80% 29.99 in 10.0 mi WNW 15.0 mph 20.7 mph N/A   Overcast
2:03 PM 48.2 °F - 42.8 °F 82% 29.98 in 10.0 mi NW 16.1 mph 25.3 mph N/A   Overcast
2:13 PM 48.2 °F - 42.8 °F 82% 29.98 in 10.0 mi WNW 12.7 mph 24.2 mph N/A   Overcast
2:18 PM 48.2 °F - 42.8 °F 82% 29.98 in 10.0 mi NW 18.4 mph 24.2 mph N/A   Overcast
2:58 PM 49.3 °F - 41.0 °F 73% 29.99 in 10.0 mi NW 20.7 mph 29.9 mph N/A   Overcast
3:58 PM 51.6 °F - 39.6 °F 63% 30.00 in 10.0 mi NNW 18.4 mph 27.6 mph N/A   Mostly Cloudy
4:15 PM 51.8 °F - 39.2 °F 62% 29.99 in 10.0 mi NNW 16.1 mph 24.2 mph N/A   Mostly Cloudy
4:58 PM 54.5 °F - 38.3 °F 54% 30.00 in 10.0 mi NW 13.8 mph 21.9 mph N/A   Partly Cloudy
5:58 PM 53.1 °F - 37.4 °F 55% 30.01 in 10.0 mi NW 17.3 mph 21.9 mph N/A   Clear
6:58 PM 50.4 °F - 35.2 °F 56% 30.03 in 10.0 mi North 12.7 mph 23.0 mph N/A   Clear
7:58 PM 46.9 °F - 36.3 °F 67% 30.08 in 10.0 mi NW 5.8 mph - N/A   Clear
8:58 PM 45.5 °F 42.5 °F 36.9 °F 72% 30.12 in 10.0 mi NW 5.8 mph - N/A   Clear
9:58 PM 42.8 °F 40.1 °F 37.8 °F 82% 30.13 in 10.0 mi NW 4.6 mph - N/A   Clear
10:58 PM 43.3 °F 39.9 °F 36.7 °F 77% 30.15 in 10.0 mi NW 5.8 mph - N/A   Clear
11:58 PM 43.5 °F 40.1 °F 35.2 °F 73% 30.16 in 10.0 mi NNW 5.8 mph - N/A   Clear